Location: Passau
(48.5721°N, 13.4363°E)
Time: 12:24:22
(UTC+02:00)

ISS - Visible Passes

Search period start: 13 May 2021 00:00
Search period end: 23 May 2021 00:00
Orbit: 417 x 422 km, 51.6° (Epoch: 13 May)

Date Brightness Start Highest point End Pass type
(mag) Time Alt. Az. Time Alt. Az. Time Alt. Az.
13 May -1.2 00:32:07 15° ENE 00:32:07 15° ENE 00:32:46 10° ENE visible
13 May -2.8 02:05:02 28° WNW 02:06:26 47° N 02:09:43 10° ENE visible
13 May -3.7 03:40:05 10° WNW 03:43:29 80° NNE 03:46:52 10° ESE visible
14 May -2.9 01:18:38 48° NNW 01:18:54 49° N 01:22:13 10° ENE visible
14 May -3.3 02:52:39 10° WNW 02:56:00 63° NNE 02:59:22 10° E visible
14 May -3.2 04:29:34 10° WNW 04:32:43 37° SW 04:35:53 10° SE visible
14 May -3.7 22:51:18 10° SW 22:54:34 50° SSE 22:57:51 10° ENE visible
15 May -3.1 00:28:04 10° W 00:31:24 55° N 00:34:44 10° ENE visible
15 May -3.0 02:05:11 10° WNW 02:08:31 54° N 02:11:50 10° E visible
15 May -3.7 03:42:03 10° WNW 03:45:22 54° SSW 03:48:40 10° SE visible
15 May -3.1 22:04:08 10° SSW 22:07:12 34° SE 22:10:18 10° E visible
15 May -3.4 23:40:32 10° W 23:43:54 66° NNW 23:47:16 10° ENE visible
16 May -2.8 01:17:42 10° WNW 01:21:00 49° N 01:24:18 10° E visible
16 May -3.9 02:54:35 10° WNW 02:57:58 77° SSW 03:01:20 10° ESE visible
16 May -2.2 04:32:06 10° W 04:34:21 17° SW 04:36:35 10° S visible
16 May -3.8 22:53:03 10° WSW 22:56:26 84° NNW 22:59:49 10° ENE visible
17 May -2.8 00:30:11 10° WNW 00:33:28 47° N 00:36:46 10° ENE visible
17 May -3.7 02:07:08 10° WNW 02:10:32 80° NNE 02:13:54 10° ESE visible
17 May -2.7 03:44:16 10° W 03:47:05 25° SW 03:49:54 10° SSE visible
17 May -3.9 22:05:38 10° WSW 22:08:59 72° SSE 22:12:21 10° ENE visible
17 May -2.8 23:42:39 10° W 23:45:56 49° N 23:49:15 10° ENE visible
18 May -3.4 01:19:41 10° WNW 01:22:56 63° N 01:22:56 63° N visible
18 May -3.6 21:18:19 10° SW 21:21:36 50° SSE 21:24:52 10° ENE visible
18 May -3.0 22:55:06 10° W 22:58:25 55° N 23:01:45 10° ENE visible
19 May -3.0 00:32:13 10° WNW 00:35:33 54° N 00:36:31 37° ENE visible
19 May -1.2 02:09:05 10° WNW 02:09:26 12° WNW 02:09:26 12° WNW visible
19 May -3.3 22:07:34 10° W 22:10:56 66° NNW 22:14:17 10° ENE visible
19 May -2.8 23:44:43 10° WNW 23:48:01 49° N 23:50:21 17° ENE visible
20 May -2.1 01:21:37 10° WNW 01:23:16 27° WNW 01:23:16 27° WNW visible
20 May -2.7 22:57:13 10° WNW 23:00:29 47° N 23:03:46 10° ENE visible
21 May -3.6 00:34:09 10° WNW 00:37:12 68° NW 00:37:12 68° NW visible
21 May -2.8 22:09:39 10° W 22:12:57 49° N 22:16:15 10° ENE visible
21 May -3.4 23:46:42 10° WNW 23:50:03 64° NNE 23:51:10 37° E visible
22 May -1.2 01:23:38 10° WNW 01:24:06 13° W 01:24:06 13° W visible
22 May -3.0 21:22:07 10° W 21:25:26 55° N 21:28:45 10° ENE visible
22 May -3.1 22:59:13 10° WNW 23:02:33 54° N 23:05:10 15° E visible
